Regional Weather Roundup
Issued by NWS

Home | Current Version | Previous Version | Graphics & Text | Print | Product List | Glossary On
Versions: 1 2 3 4 5 6 7 8 9 10 11 12 13 14 15 16 17 18 19 20 21 22 23 24 25 26 27
000
ASUS45 KBOI 201310
RWRID

IDAHO REGIONAL WEATHER ROUNDUP
NATIONAL WEATHER SERVICE BOISE ID
700 AM MDT FRI OCT 20 2017

NOTE: "FAIR" INDICATES FEW OR NO CLOUDS BELOW 12000 FEET
WITH NO SIGNIFICANT WEATHER AND/OR OBSTRUCTIONS TO VISIBILITY

IDZ012-014-201400-
SOUTHWEST IDAHO


CITY           SKY/WX    TMP DP  RH WIND       PRES   REMARKS
BOISE          LGT RAIN  44  39  82 N14       29.62S
CALDWELL       LGT RAIN  45  41  86 W7        29.65
MOUNTAIN HOME  LGT RAIN  45  40  84 NW18G29   29.61R
$$

IDZ016-017-201400-
SOUTHCENTRAL IDAHO


CITY           SKY/WX    TMP DP  RH WIND       PRES   REMARKS
BURLEY         CLOUDY    53  23  31 W5        29.50F
JEROME         CLOUDY    52  27  38 SW6       29.52F
TWIN FALLS     CLOUDY    52  24  33 S10       29.51F
$$

IDZ019>023-201400-
SOUTHEAST IDAHO


CITY           SKY/WX    TMP DP  RH WIND       PRES   REMARKS
IDAHO FALLS    CLOUDY    53  34  48 SW10      29.51F
POCATELLO      PTCLDY    60  31  33 S31G41    29.47F
REXBURG        CLOUDY    37  25  61 NE3       29.52F
$$

IDZ006-010-011-018-031-032-201400-
CENTRAL IDAHO MOUNTAINS


CITY           SKY/WX    TMP DP  RH WIND       PRES   REMARKS
MCCALL         LGT SNOW  34  32  92 NW7       29.53R FOG     WCI  28
HAILEY         LGT RAIN  48  30  49 W9        29.57R
STANLEY          N/A     46  31  55 SE10      29.51F
SALMON         CLOUDY    31  24  75 SE3       29.37F
CHALLIS        PTCLDY    55  26  32 S21       29.43F
$$

IDZ002-004-006-007-026-201400-
NORTHERN IDAHO


CITY           SKY/WX    TMP DP  RH WIND       PRES   REMARKS
LEWISTON       LGT RAIN  46  43  89 CALM      29.58S
LOWELL           N/A     43  40  89 VRB3      29.62S
COEUR D`ALENE  LGT RAIN  43  41  93 SW5       29.53R
MULLAN PASS    SNOW      30  28  92 VRB7      29.48S VSB 1/2 WCI  23
$$




USA.gov is the U.S. government's official web portal to all federal, state and local government web resources and services.